Flag for Germany Weather past 2 weeks in Minden, North Rhine-Westphalia, Germany

Now
59 °F

Fog.


Feels Like: 59 °F
Forecast: 58 / 74 °F
Wind: 1 mph from Northwest

Location: Bueckeburg

Current Time: Sep 16, 2014 at 3:24:19 AM

Latest Report: Sep 16, 2014 at 2:20 AM


Visibility: 2 mi

Pressure: 30.04 "Hg

Humidity: 100%

Dew point: 59 °F

Location of MindenLocation

Historic Weather in Minden — Graph

°F

Minden temperature yesterday

Maximum temperature yesterday: 70 °F (at 3:20 PM)
Minimum temperature yesterday: 57 °F (at 12:20 AM)
Average temperature yesterday: 62 °F

Past Weeks' High & Low Weather Summary

 TemperatureHumidityPressure
High77 °F (Sep 5, 2:20 PM)100% (Sep 1, 3:20 AM)30.30 "Hg (Sep 1, 3:20 AM)
Low48 °F (Sep 12, 1:20 AM)53% (Sep 8, 5:20 PM)29.86 "Hg (Sep 6, 4:20 PM)
Average61 °F85%30.08 "Hg
* Reported Sep 1 1:20 AM — Sep 16 1:20 AM, Minden, Weather by CustomWeather, © 2014

Note: Actual official high and low records may vary slightly from our data, if they occured in-between our weather recording intervals... More about our weather records

Advertising

Minden weather history for previous 24 hours

 ConditionsComfort  
Time TempWeatherWind HumidityBarometerVisibility
1:20 AM
Sep 16
59 °FFog.1 mph94%30.04 "Hg2 mi
12:53 AM59 °FFog.1 mph100%30.04 "Hg2 mi
12:20 AM61 °FFog.2 mph88%30.04 "Hg3 mi
11:20 PM
Sep 15
61 °FPassing clouds.2 mph94%30.04 "Hg4 mi
10:20 PM63 °FPassing clouds.3 mph88%30.04 "Hg4 mi
9:20 PM64 °FPassing clouds.5 mph88%30.04 "Hg4 mi
8:20 PM64 °FPartly sunny.5 mph88%30.04 "Hg4 mi
7:20 PM66 °FBroken clouds.2 mph83%30.04 "Hg5 mi
6:20 PM68 °FPartly sunny.6 mph78%30.04 "Hg5 mi
5:20 PM68 °FBroken clouds.12 mph78%30.04 "HgN/A
4:20 PM70 °FBroken clouds.9 mph73%30.04 "HgN/A
3:20 PM70 °FPartly sunny.8 mph73%30.04 "HgN/A
2:20 PM68 °FPartly sunny.8 mph78%30.07 "Hg6 mi
1:20 PM66 °FPartly sunny.9 mph83%30.07 "Hg6 mi
12:20 PM66 °FPartly sunny.5 mph83%30.07 "Hg5 mi
11:20 AM66 °FPartly sunny.1 mph83%30.07 "Hg5 mi
10:49 AM64 °FFog.1 mph88%30.07 "Hg3 mi
10:20 AM63 °FFog.2 mph88%30.09 "Hg3 mi
9:20 AM61 °FFog.1 mph94%30.07 "Hg2 mi
8:20 AM61 °FFog.3 mph94%30.07 "Hg1 mi
7:54 AM59 °FFog.3 mph100%30.07 "Hg1 mi
7:20 AM59 °FFog.2 mph94%30.07 "Hg0 mi
7:01 AM59 °FFog.2 mph94%30.07 "Hg1 mi
6:20 AM57 °FPassing clouds.No wind94%30.07 "Hg4 mi
5:48 AM57 °FLow clouds.1 mph94%30.07 "Hg4 mi
5:20 AM57 °FPassing clouds.1 mph94%30.07 "Hg5 mi
4:20 AM57 °FPassing clouds.1 mph94%30.09 "HgN/A
3:20 AM57 °FPassing clouds.1 mph94%30.09 "HgN/A
Weather by CustomWeather, © 2014

See weather overviewHow to use our weather pages